Back to catalog

THORAD AGENA D DEB

AlivePO
NORAD 42523·DEBRIS·🇺🇸 United States

Launched Apr 8, 1970 from Vandenberg Space Force Base

Loading…

Next Passes (next 24 hours)

TLE

AgingSource: Space-Track

Epoch: Sep 7, 2026, 20:10 UTC

1 42523U 70025SD  26250.84092531  .00000323  00000-0  37801-3 0  9997
2 42523  99.9861  14.6517 0026171  51.3557 100.4416 13.76562504641711

Track THORAD AGENA D DEB in real time with AllMySat

Download on the App Store